Location: Unspecified
(0.0000°N, 0.0000°E)
Time: 16:02:07
(UTC+00:00)

ATLAS 5 CENTAUR DEB - Pass Details

Date: 09 March 2026
Orbit: 7294 x 36414 km, 19.5° (Epoch: 14 February)

Event Time Altitude Azimuth Distance (km) Brightness Sun altitude
Rises 12:23:50 0° 283° (WNW) 12,395 ? 84.5°
Reaches altitude 10° 12:31:15 10° 280° (W) 11,071 ? 83.2°
Enters shadow 22:00:09 62° 76° (ENE) 30,971 ? -57.2°
Exits shadow 23:14:01 57° 63° (ENE) 24,520 ? -75.3°
Drops below altitude 10° 00:50:53 10° 67° (ENE) 15,530 ? -79.1°
Sets 01:00:55 0° 69° (ENE) 15,267 ? -76.7°
